Regional Weather Roundup
Issued by NWS

Home | Current Version | Previous Version | Text Only | Print | Product List | Glossary Off
Versions: 1 2 3 4 5 6 7 8 9 10 11 12 13 14 15 16 17 18 19 20 21 22 23 24 25 26 27 28 29 30 31 32 33 34 35 36 37 38 39 40 41 42 43 44 45 46 47 48 49 50

000
ASUS45 KTFX 302304
RWRMT
MONTANA HOURLY WEATHER ROUNDUP
NATIONAL WEATHER SERVICE GREAT FALLS MT
504 PM MDT SAT AUG 30 2014

NOTE: "FAIR" INDICATES FEW OR NO CLOUDS BELOW 12000 FEET WITH NO
SIGNIFICANT WEATHER AND/OR OBSTRUCTIONS TO VISIBILITY.

* THESE STATIONS ARE NOT UNDER NWS QUALITY CONTROL. THEY DO NOT
   REPORT WEATHER SUCH AS PRECIPITATION OR FOG.

MTZ001>007-043-310000-
WEST OF THE DIVIDE
CITY           SKY/WX    TMP DP  RH WIND       PRES   REMARKS
KALISPELL      CLOUDY    72  37  28 SW13G23   29.78S
MISSOULA       MOCLDY    75  36  24 W17G28    29.82F
BUTTE          TSTM      57  48  72 SE6       29.91R
MULLAN PASS    CLOUDY    54  39  57 VRB3      29.96S
* LINCOLN      N/A       67  38  35 SW4G16     N/A
* LOOKOUT PASS N/A       61  42  50 SE2        N/A
* POLSON       N/A       72  39  30 W4         N/A
* RONAN APT    MOCLDY    73  39  29 W10G17     N/A
* SEELEY LAKE  N/A       69  39  34 W9G18      N/A
* THOMP F APT  CLOUDY    60  48  65 S9G15      N/A
$$

MTZ008-052>055-310000-
SOUTHWEST MONTANA
CITY           SKY/WX    TMP DP  RH WIND       PRES   REMARKS
BOZEMAN        TSTM      55  54  96 NW21      29.90R
DILLON         CLOUDY    57  48  72 S12       29.89F
W YELLOWSTONE  MOCLDY    54  46  74 N3        30.00S
* THREE FORKS  CLOUDY    55  36  49 N/A        N/A
* BOULDER HILL N/A       60  40  48 VRB8G15    N/A
* MONIDA PASS  N/A       47  42  83 N14G26     N/A
* RAYNOLDS PAS N/A       52  51  96 N20        N/A
* WHITEHALL    N/A       56  52  87 S4G11      N/A
* WISE RIVER   N/A       60  38  44 W21G27     N/A
$$

MTZ009>010-012-014-046-048-049-054-310000-
EAST SLOPES AND CENTRAL MONTANA
CITY           SKY/WX    TMP DP  RH WIND       PRES   REMARKS
CUT BANK       PTCLDY    70  37  30 W20G26    29.77R
GREAT FALLS    PTCLDY    72  45  38 S10       29.75F
HELENA         MOCLDY    72  43  35 W13       29.80S
MALMSTROM AFB  MOCLDY    70  45  41 S14       29.76F
* CONRAD       PTCLDY    73  36  26 SW18G25    N/A
* EAST GLACIER N/A       63  35  35 NW20G30    N/A
* MONARCH      N/A       64  34  33 W6G16      N/A
* PENDROY      N/A       69  35  29 NW12G21    N/A
* ROGERS PASS  N/A       64  33  31 SE12G20    N/A
* SAINT MARY   N/A       65  36  34 S9G17      N/A
* SWEET GRASS  N/A       71  32  24 W22G27     N/A
$$

MTZ011-013-016-021-035-040-045-047-050-051-310000-
NORTH CENTRAL MONTANA
CITY           SKY/WX    TMP DP  RH WIND       PRES   REMARKS
HAVRE          MOCLDY    75  45  34 N8        29.69F
LEWISTOWN      CLOUDY    70  45  41 SW7       29.78F
* CHESTER      N/A       74  33  22 W12G24     N/A
* DENTON       N/A       73  37  27 W14        N/A
* GEYSER       N/A       69  38  32 NW7G12     N/A
* JUDITH GAP   N/A       64  46  52 SW11       N/A
* LOMA         N/A       77  35  22 W12G24     N/A
$$

MTZ017>020-022>027-061-062-310000-
NORTHEAST MONTANA
CITY           SKY/WX    TMP DP  RH WIND       PRES   REMARKS
GLASGOW        CLOUDY    66  55  68 S8        29.71S
GLENDIVE       CLOUDY    70  61  73 N10       29.72R
JORDAN         CLOUDY    70  52  53 CALM      29.74S
SIDNEY         CLOUDY    66  61  84 NW13G20   29.71S
WOLF POINT     CLOUDY    66  57  73 E5        29.71F
* BEAVER HILL  N/A       72  59  64 W5G11      N/A
* CIRCLE       N/A       67  58  73 N/A        N/A
* LINDSAY DVD  N/A       66  57  73 NW11G18    N/A
* NAVAJO       N/A       61  58  90 S3         N/A
$$

MTZ028>042-056>058-310000-
SOUTHCENTRAL AND SOUTHEAST MONTANA
CITY           SKY/WX    TMP DP  RH WIND       PRES   REMARKS
BAKER          MOCLDY    73  57  57 NW15      29.72S
BILLINGS       CLOUDY    66  54  65 SW8       29.81S
LIVINGSTON     CLOUDY    61  48  62 W10       29.86S
MILES CITY     TSTM      70  57  64 SW6       29.74R
* LAUREL APT   CLOUDY    64  50  61 N/A        N/A
* ROUNDUP APT  CLOUDY    70  52  53 E5         N/A
* ALZADA       N/A       81  56  42 VRB9       N/A   HI  81
* HYSHAM       N/A       65  55  70 SE2        N/A
* LAME DEER    N/A       63  52  68 W10G17     N/A
* REED POINT   N/A       65  48  54 W11G23     N/A
* ROSCOE HILL  N/A       63  36  37 SW4G9      N/A
$$

REGIONAL REPORTS...DAKOTAS
CITY           SKY/WX    TMP DP  RH WIND       PRES   REMARKS
WILLISTON      LGT RAIN  70  63  79 NW5       29.67F
DICKINSON      MOCLDY    75  57  54 S16       29.71S
BEACH          N/A       70  66  87 S3        29.71F
CROSBY         CLOUDY    63  63 100 NW7       29.71F
TIOGA          MOCLDY    64  64 100 SE7       29.74F
WATFORD CITY   MOCLDY    68  63  84 SE6       29.66F
BISMARCK       CLEAR     75  55  50 SE15      29.75F
GRAND FORKS    PTCLDY    73  52  48 SE7       29.81F
FARGO          CLOUDY    70  57  64 SE6       29.82F
BUFFALO SD     PTCLDY    81  61  51 E14       29.62F HI  82
RAPID CITY     PTCLDY    88  54  31 S16       29.66F
$$

REGIONAL REPORTS...WYOMING/IDAHO/WASHINGTON
CITY           SKY/WX    TMP DP  RH WIND       PRES   REMARKS
GILLETTE       CLOUDY    79  52  39 N22       29.74R
SHERIDAN       CLOUDY    61  55  81 NW9       29.84S
CODY           CLOUDY    57  46  67 SW13G20   29.93S
YELLOWSTONE LA CLOUDY    45  43  93 CALM      30.08F
SALMON         CLOUDY    64  50  61 NW6       29.85F
MULLAN PASS    CLOUDY    54  39  57 VRB3      29.96S
SAND POINT     CLOUDY    72  41  33 S14G20    29.81F
SPOKANE        CLOUDY    72  39  30 W20G25    29.83F

$$




USA.gov is the U.S. government's official web portal to all federal, state and local government web resources and services.